Weather History for Lincoln, CA

Change the Weather History Date:

Wednesday, November 14, 2012

  Actual Average (KAUN) Record (KAUN)
Temperature  
Mean Temperature 52 °F -  
Max Temperature 68 °F 60 °F 78 °F (1974)
Min Temperature 35 °F 41 °F 32 °F (1978)
Degree Days  
Heating Degree Days 14    
Growing Degree Days 2 (Base 50)    
Moisture  
Dew Point 41 °F    
Average Humidity 77    
Maximum Humidity 100    
Minimum Humidity 40    
Precipitation  
Precipitation 0.00 in - - ()
Sea Level Pressure  
Sea Level Pressure 30.09 in    
Wind  
Wind Speed 1 mph (NNE)    
Max Wind Speed 6 mph    
Max Gust Speed -    
Visibility 10 miles    
Events      
Averages and records for this station are not official NWS values.
T = Trace of Precipitation, MM = Missing Value Source: NWS Daily Summary

Daily Weather History Graph

Daily Weather History Graph

Search for Another Location

Airport:

Trip Planner

Search our weather history database for the weather conditions in past years. The results will help you decide how hot, cold, wet, or windy it might be!

Date:

Astronomy

Nov. 14, 2012 Rise Set
Actual Time 6:47 AM PST 4:51 PM PST
Civil Twilight 6:19 AM PST 5:20 PM PST
Nautical Twilight 5:46 AM PST 5:52 PM PST
Astronomical Twilight 5:15 AM PST 6:24 PM PST
Moon 7:42 AM PST (11/14) 5:46 PM PST (11/14)
Length of Visible Light 11h 01m
Length of Day
10h 04m
New Moon, 1% of the Moon is Illuminated
Nov 14
New Moon
Nov 20
First Quarter
Nov 28
Full
Dec 6
Last Quarter
Dec 13
New

Hourly Weather History & Observations

Time (PST) Temp. Windchill Dew Point Humidity Pressure Visibility Wind Dir Wind Speed Gust Speed Precip Events Conditions
12:15 AM 37.4 °F - 35.6 °F 93% 30.13 in 10.0 mi Calm Calm - N/A   Clear
12:35 AM 41.0 °F - 37.4 °F 87% 30.13 in 10.0 mi Calm Calm - N/A   Clear
12:55 AM 39.2 °F - 37.4 °F 93% 30.14 in 10.0 mi Calm Calm - N/A   Clear
1:15 AM 39.2 °F - 35.6 °F 87% 30.13 in 10.0 mi Calm Calm - N/A   Clear
1:35 AM 37.4 °F - 35.6 °F 93% 30.14 in 10.0 mi Calm Calm - N/A   Clear
1:55 AM 37.4 °F 33.8 °F 35.6 °F 93% 30.14 in 10.0 mi ENE 4.6 mph - N/A   Clear
2:15 AM 37.4 °F - 35.6 °F 93% 30.14 in 10.0 mi Calm Calm - N/A   Clear
2:35 AM 37.4 °F - 35.6 °F 93% 30.14 in 10.0 mi Calm Calm - N/A   Clear
2:55 AM 37.4 °F - 35.6 °F 93% 30.13 in 10.0 mi Calm Calm - N/A   Clear
3:15 AM 37.4 °F - 35.6 °F 93% 30.13 in 7.0 mi Calm Calm - N/A   Clear
3:35 AM 35.6 °F - 35.6 °F 100% 30.13 in 10.0 mi Calm Calm - N/A   Clear
3:55 AM 35.6 °F - 35.6 °F 100% 30.13 in 10.0 mi Calm Calm - N/A   Clear
4:15 AM 35.6 °F 30.7 °F 35.6 °F 100% 30.12 in 10.0 mi NE 5.8 mph - N/A   Clear
4:35 AM 35.6 °F 31.7 °F 35.6 °F 100% 30.11 in 7.0 mi NE 4.6 mph - N/A   Clear
4:55 AM 37.4 °F 34.9 °F 35.6 °F 93% 30.11 in 10.0 mi ENE 3.5 mph - N/A   Clear
5:15 AM 37.4 °F - 35.6 °F 93% 30.11 in 10.0 mi Calm Calm - N/A   Clear
5:35 AM 37.4 °F 34.9 °F 37.4 °F 100% 30.11 in 10.0 mi NW 3.5 mph - N/A   Clear
5:55 AM 37.4 °F - 37.4 °F 100% 30.11 in 10.0 mi Calm Calm - N/A   Clear
6:15 AM 37.4 °F - 37.4 °F 100% 30.11 in 10.0 mi Calm Calm - N/A   Clear
6:35 AM 39.2 °F - 37.4 °F 93% 30.11 in 10.0 mi Calm Calm - N/A   Clear
6:55 AM 41.0 °F - 39.2 °F 93% 30.12 in 10.0 mi Calm Calm - N/A   Clear
7:15 AM 41.0 °F - 37.4 °F 87% 30.12 in 10.0 mi Calm Calm - N/A   Clear
7:55 AM 42.8 °F - 41.0 °F 93% 30.13 in 10.0 mi Calm Calm - N/A   Clear
8:15 AM 42.8 °F - 41.0 °F 93% 30.14 in 10.0 mi Calm Calm - N/A   Clear
8:35 AM 42.8 °F - 42.8 °F 100% 30.14 in 10.0 mi Calm Calm - N/A   Clear
8:55 AM 50.0 °F - 44.6 °F 82% 30.14 in 10.0 mi Calm Calm - N/A   Clear
9:15 AM 50.0 °F - 44.6 °F 82% 30.14 in 10.0 mi Calm Calm - N/A   Clear
9:35 AM 53.6 °F - 44.6 °F 72% 30.15 in 10.0 mi Calm Calm - N/A   Clear
9:55 AM 55.4 °F - 44.6 °F 67% 30.15 in 10.0 mi Calm Calm - N/A   Clear
10:15 AM 55.4 °F - 44.6 °F 67% 30.15 in 10.0 mi Calm Calm - N/A   Clear
10:35 AM 59.0 °F - 44.6 °F 59% 30.15 in 10.0 mi Calm Calm - N/A   Clear
10:55 AM 59.0 °F - 42.8 °F 55% 30.14 in 10.0 mi Calm Calm - N/A   Clear
11:15 AM 60.8 °F - 42.8 °F 52% 30.13 in 10.0 mi Calm Calm - N/A   Clear
11:35 AM 62.6 °F - 42.8 °F 48% 30.12 in 10.0 mi Calm Calm - N/A   Clear
11:55 AM 62.6 °F - 44.6 °F 52% 30.11 in 10.0 mi West 3.5 mph - N/A   Clear
12:15 PM 64.4 °F - 44.6 °F 49% 30.11 in 10.0 mi West 4.6 mph - N/A   Clear
12:55 PM 66.2 °F - 42.8 °F 43% 30.08 in 10.0 mi North 3.5 mph - N/A   Clear
1:15 PM 66.2 °F - 42.8 °F 43% 30.07 in 10.0 mi Calm Calm - N/A   Clear
1:35 PM 68.0 °F - 42.8 °F 40% 30.06 in 10.0 mi Calm Calm - N/A   Clear
1:55 PM 68.0 °F - 42.8 °F 40% 30.06 in 10.0 mi Calm Calm - N/A   Clear
2:15 PM 68.0 °F - 42.8 °F 40% 30.05 in 10.0 mi Calm Calm - N/A   Clear
2:35 PM 68.0 °F - 44.6 °F 43% 30.05 in 10.0 mi Calm Calm - N/A   Clear
2:55 PM 68.0 °F - 44.6 °F 43% 30.04 in 10.0 mi WNW 3.5 mph - N/A   Clear
3:15 PM 68.0 °F - 44.6 °F 43% 30.04 in 10.0 mi NW 4.6 mph - N/A   Clear
3:35 PM 68.0 °F - 44.6 °F 43% 30.04 in 10.0 mi NW 5.8 mph - N/A   Clear
3:55 PM 66.2 °F - 44.6 °F 46% 30.04 in 10.0 mi WNW 4.6 mph - N/A   Clear
4:15 PM 64.4 °F - 46.4 °F 52% 30.04 in 10.0 mi WNW 4.6 mph - N/A   Clear
4:35 PM 64.4 °F - 46.4 °F 52% 30.04 in 10.0 mi Calm Calm - N/A   Clear
4:55 PM 62.6 °F - 46.4 °F 55% 30.04 in 10.0 mi Calm Calm - N/A   Clear
5:15 PM 59.0 °F - 46.4 °F 63% 30.04 in 3.0 mi Calm Calm - N/A   Clear
5:35 PM 55.4 °F - 46.4 °F 72% 30.04 in 10.0 mi Calm Calm - N/A   Clear
5:55 PM 55.4 °F - 46.4 °F 72% 30.04 in 10.0 mi Calm Calm - N/A   Clear
6:15 PM 53.6 °F - 46.4 °F 77% 30.04 in 10.0 mi Calm Calm - N/A   Clear
6:35 PM 50.0 °F - 44.6 °F 82% 30.04 in 10.0 mi ENE 3.5 mph - N/A   Clear
6:55 PM 51.8 °F - 46.4 °F 82% 30.04 in 10.0 mi Calm Calm - N/A   Clear
7:15 PM 46.4 °F - 42.8 °F 87% 30.04 in 10.0 mi Calm Calm - N/A   Clear
7:35 PM 46.4 °F - 42.8 °F 87% 30.05 in 10.0 mi Calm Calm - N/A   Clear
7:55 PM 44.6 °F 43.1 °F 42.8 °F 93% 30.04 in 10.0 mi ENE 3.5 mph - N/A   Clear
8:15 PM 44.6 °F 42.2 °F 41.0 °F 87% 30.05 in 10.0 mi NE 4.6 mph - N/A   Clear
8:35 PM 44.6 °F 42.2 °F 42.8 °F 93% 30.05 in 10.0 mi ENE 4.6 mph - N/A   Clear
8:55 PM 44.6 °F 42.2 °F 42.8 °F 93% 30.04 in 10.0 mi East 4.6 mph - N/A   Clear
9:15 PM 46.4 °F - 44.6 °F 93% 30.04 in 10.0 mi Calm Calm - N/A   Clear
9:35 PM 46.4 °F - 42.8 °F 87% 30.04 in 10.0 mi Calm Calm - N/A   Clear
10:15 PM 44.6 °F 43.1 °F 42.8 °F 93% 30.04 in 10.0 mi East 3.5 mph - N/A   Clear
10:35 PM 42.8 °F 40.1 °F 41.0 °F 93% 30.03 in 10.0 mi ENE 4.6 mph - N/A   Clear
10:55 PM 44.6 °F 43.1 °F 42.8 °F 93% 30.03 in 10.0 mi East 3.5 mph - N/A   Clear
11:15 PM 50.0 °F - 42.8 °F 76% 30.03 in 10.0 mi Calm Calm - N/A   Clear
11:35 PM 42.8 °F 41.1 °F 41.0 °F 93% 30.03 in 10.0 mi North 3.5 mph - N/A   Clear
11:55 PM 42.8 °F - 41.0 °F 93% 30.03 in 10.0 mi Calm Calm - N/A   Clear